LCGO2: Spring Creek Locust Grove, OK

Data processed at Fri May 18 2018 18:54


All information presented herein is the property of the government of the United States of America and may be revised or deleted at any time without prior notice.
Dissemination of this information without the expressed written consent of the Public Affairs Office, Tulsa District U.S. Army Corps of Engineers is strictly prohibited.
These data are gathered electronically and, as presented, have not undergone any form of quality control. These data are not guaranteed to be valid or correct.
Go to home page.
Go to station list.


Previous Day
Next Day
Current Day


    
SHEF ID:       LCGO2     Spring Creek at Locust Grove
STATION TYPE:  

               PRECIP     STAGE  RIV-FLOW   VOLTAGE  BAT-LOAD
                   in        ft       cfs      volt      volt
              Ccp-Rev   Ccp-Rev   Ccp-Rev   Ccp-Rev   Ccp-Rev
(US/Central)
05/17 00:00      0.00     13.01       139     12.65     12.65
05/17 01:00      0.00     13.01       139     12.65     12.57
05/17 02:00      0.00     13.01       139     12.65     12.57
05/17 03:00      0.00     13.02       140     12.65     12.57
05/17 04:00      0.00     13.02       140     12.65     12.57
05/17 05:00      0.00     13.02       140     12.65     12.57
05/17 06:00      0.00     13.03       142     12.57     12.49
05/17 07:00      0.00     13.03       142     12.65     12.57
05/17 08:00      0.00     13.03       142     13.68     13.37
05/17 09:00      0.00     13.03       142     13.44     13.29
05/17 10:00      0.00     13.03       142     13.60     13.44
05/17 11:00      0.00     13.02       140     13.37     13.92
05/17 12:00      0.00     13.02       140     13.44     13.29
05/17 13:00      0.00     13.01       139     14.00     13.05
05/17 14:00      0.00     13.01       139     13.84     13.05
05/17 15:00      0.00     13.00       138     13.29     13.76
05/17 16:00      0.00     13.00       138     14.16     13.05
05/17 17:00      0.00     13.00       138     13.76     12.97
05/17 18:00      0.00     13.00       138     14.00     12.97
05/17 19:00      0.00     12.99       137     14.16     13.05
05/17 20:00      0.00     13.00       138     12.97     12.97
05/17 21:00      0.00     13.00       138     12.81     12.73
05/17 22:00      0.00     13.00       138     12.73     12.65
05/17 23:00      0.00     13.00       138     12.73     12.65